Wind_Speed
56 52 51 51 51 49 43 39 32 35 30 41 43 44 49 46 46 48 47 51 48 45 45 43 46 47 50 51 52 51 49 50 49 50 48 47 48 47 46 46 44 43 43 43
54 51 51 49 52 43 40 36 29 31 32 46 48 47 49 52 54 52 51 48 45 43 38 39 39 47 51 48 52 51 50 51 54 56 57 56 55 55 54 54 51 49 47 47
52 49 47 50 53 45 41 38 30 34 42 56 49 48 52 53 55 46 51 48 48 47 46 45 46 47 51 54 55 54 54 54 54 55 55 55 56 57 55 57 55 51 52 53
53 52 50 53 49 45 44 37 34 40 52 58 54 57 56 57 51 53 49 50 54 51 50 47 48 52 51 54 58 60 60 58 57 56 56 57 56 56 55 56 59 59 59 59
49 51 49 53 51 47 40 39 42 48 60 64 55 53 55 61 66 59 53 51 61 59 59 55 57 59 59 60 58 61 60 62 62 61 62 63 64 65 68 70 66 63 63 63
50 50 51 54 52 47 40 43 49 53 63 68 63 62 59 63 66 67 63 62 61 60 64 62 63 61 58 57 58 57 54 62 66 65 62 63 63 62 62 66 67 67 65 63
47 46 48 51 49 43 40 48 52 59 71 72 71 66 71 66 66 71 72 70 66 65 66 64 57 66 63 65 62 60 57 57 60 61 61 63 65 64 65 66 66 66 66 68
44 44 47 49 44 43 45 53 59 66 80 79 74 73 66 74 69 71 70 72 71 73 70 68 68 66 67 65 68 67 61 65 67 65 64 66 68 69 68 70 72 74 74 75
45 47 51 48 44 43 46 56 65 70 85 85 79 79 77 72 79 75 77 74 75 71 74 75 74 73 73 73 74 73 74 72 75 70 68 75 75 77 79 78 77 77 77 79
45 48 51 50 47 46 48 57 68 71 91 88 85 85 87 88 89 86 83 79 78 78 75 72 77 74 75 77 74 75 78 77 75 81 79 77 78 81 86 86 85 85 84 86
49 49 49 47 47 47 49 57 66 75 81 96 92 89 88 93 91 89 90 89 86 80 76 74 75 79 79 80 80 80 86 83 82 89 90 83 85 82 84 85 85 85 84 86
50 50 49 50 52 51 52 57 63 72 78 82 98 96 94 90 93 95 95 95 92 91 89 84 87 86 86 88 90 92 90 92 93 95 95 96 96 93 92 92 92 91 90 90
48 48 48 48 53 55 56 55 60 66 73 83 83 91 99 96 96 97 97 94 95 93 97 98 97 95 94 94 96 96 97 95 95 98 99 105 103 99 99 97 97 100 101 103
47 45 46 45 48 54 57 59 59 62 66 70 80 84 86 99 100 100 103 100 96 96 96 99 100 101 100 97 99 97 99 100 104 106 106 105 103 103 104 105 106 107 104 105
44 44 45 45 43 47 51 58 61 62 65 69 72 73 81 88 98 103 105 106 105 103 101 102 101 99 98 98 99 100 100 101 104 106 106 108 112 112 112 111 108 110 115 112
41 41 41 42 43 44 45 51 55 58 62 64 69 73 78 80 86 93 97 98 99 100 98 99 101 103 108 107 110 110 110 111 113 115 117 116 115 113 113 114 117 113 111 113
39 41 42 43 43 44 46 49 54 59 62 64 66 69 73 79 83 84 85 87 91 94 97 100 106 106 107 108 109 112 112 111 112 112 113 113 114 114 112 112 113 114 116 115
39 39 40 40 40 42 44 47 52 57 63 65 67 69 71 74 77 81 86 89 90 89 90 92 95 99 104 106 107 107 106 106 105 106 107 108 110 112 114 113 112 111 110 110
32 34 36 37 38 40 43 46 49 53 56 61 65 67 68 70 71 74 77 81 84 86 87 89 90 92 94 96 98 99 101 102 103 104 105 106 106 106 106 106 106 105 105 104
29 32 34 36 36 36 38 41 44 48 52 55 58 61 64 66 68 70 73 76 78 80 81 83 85 87 89 91 92 94 95 96 97 98 98 100 100 100 100 100 100 101 102 101
26 29 31 34 37 39 41 42 43 45 48 51 55 58 61 64 67 69 72 74 75 77 78 80 81 82 84 86 88 90 91 92 93 94 95 95 96 97 96 96 95 95 94 93
26 29 32 35 38 41 44 47 49 50 52 53 55 57 59 62 64 67 69 71 73 75 77 78 80 81 82 84 85 86 87 88 89 90 90 90 90 90 90 89 88 87 86 84
34 37 38 41 43 45 47 50 52 53 55 57 59 61 63 65 66 68 70 71 72 74 75 77 78 79 80 81 82 82 83 83 84 84 84 84 84 83 83 82 81 81 82 82
39 42 44 46 48 49 51 52 54 55 56 57 58 60 61 63 64 65 66 68 68 69 70 70 71 72 72 73 73 74 75 75 76 77 77 78 78 79 80 80 80 80 79 79
45 47 49 51 53 55 55 56 56 57 57 58 58 59 60 60 61 61 62 62 63 64 65 66 67 68 68 69 70 71 72 73 74 75 75 76 76 76 76 76 76 75 75 75
48 50 51 52 52 52 51 51 51 52 52 53 55 56 57 59 59 60 61 61 62 63 64 65 65 66 67 68 69 69 69 69 69 69 70 70 71 71 72 71 70 69 69 69
48 48 49 49 48 47 46 46 46 44 45 45 46 48 50 52 54 54 56 57 58 60 61 61 63 63 63 64 64 65 65 65 65 65 65 65 65 66 66 66 66 65 65 65
Wind_Direction
235 239 241 243 245 247 247 246 240 243 229 207 216 203 196 195 190 194 201 200 204 208 213 215 216 221 227 231 236 238 244 244 246 247 247 247 245 249 251 252 257 262 263 266
236 235 237 241 247 249 252 248 246 234 200 198 207 206 199 198 192 197 203 207 202 204 207 211 211 217 220 220 229 230 235 241 243 246 247 252 255 258 260 259 258 259 263 267
237 240 241 245 249 251 251 245 233 214 198 193 199 204 199 194 195 198 204 206 208 208 207 208 209 208 213 218 221 225 230 234 240 245 250 253 256 258 260 262 262 262 264 266
237 242 244 248 248 247 246 234 215 203 194 190 201 199 202 198 197 199 202 206 207 206 211 210 212 217 217 224 230 227 229 233 239 242 245 250 254 258 260 262 267 270 271 271
240 245 246 249 250 248 238 218 207 198 193 191 199 199 203 208 204 200 201 218 212 214 216 218 222 224 228 230 231 235 239 239 241 244 248 250 253 254 256 260 263 265 267 268
241 242 246 249 246 241 227 213 202 197 197 191 199 203 203 208 218 209 207 213 214 217 217 218 224 229 230 235 236 239 240 241 243 246 249 252 254 257 260 261 263 264 266 267
235 238 243 243 243 233 221 214 202 199 197 194 197 207 208 207 213 213 213 215 212 218 226 225 226 235 232 233 237 236 242 243 244 244 248 250 253 254 257 260 264 267 268 270
236 234 237 240 237 233 217 212 203 201 196 197 204 206 213 214 216 218 215 216 221 219 219 222 226 229 236 241 241 240 243 240 240 243 247 251 254 256 257 260 262 265 268 270
234 233 233 236 234 232 217 213 205 203 199 201 205 210 215 218 217 222 224 224 221 224 227 228 233 237 237 239 242 239 241 245 238 243 249 253 253 256 256 261 265 268 270 271
231 233 236 237 235 231 219 214 210 204 204 205 209 212 215 220 221 220 221 224 227 224 229 235 238 238 238 243 248 249 254 253 247 241 258 262 260 260 260 262 264 266 271 272
235 235 236 238 238 233 225 219 214 212 210 210 213 215 219 223 225 227 229 229 229 230 231 231 235 239 242 239 241 246 254 251 249 250 263 268 268 267 266 269 270 270 271 273
238 237 234 232 235 234 231 225 223 218 217 216 216 218 221 226 227 229 229 232 233 233 234 237 241 239 240 240 245 248 250 252 253 257 263 265 268 269 272 274 274 276 278 277
240 238 239 233 233 235 235 232 228 227 222 222 223 223 222 226 229 231 232 235 236 238 238 240 241 243 246 248 251 252 253 254 257 259 259 263 268 270 272 275 274 276 276 277
247 246 246 241 236 236 236 238 236 234 234 230 228 229 229 229 230 235 236 236 238 240 243 244 245 245 247 252 252 254 255 256 258 259 264 267 269 271 272 272 273 276 276 277
252 251 251 250 244 239 237 238 240 238 236 238 240 237 234 234 234 236 239 239 240 243 245 247 249 249 251 253 255 257 259 261 261 263 265 267 269 271 273 275 275 275 278 278
250 250 249 248 246 243 238 236 238 240 244 243 242 242 243 243 240 241 243 244 246 247 249 250 251 252 253 254 256 257 260 261 261 264 266 268 270 271 271 273 275 276 278 281
243 242 241 241 240 240 238 236 234 234 237 239 241 242 244 245 247 249 249 249 250 250 250 252 252 252 253 255 257 260 263 263 264 265 267 269 271 272 272 273 277 279 278 278
245 247 249 250 251 251 249 247 245 242 242 242 242 240 240 241 244 246 248 251 253 255 256 256 256 255 255 257 259 262 264 266 267 268 269 271 273 274 274 274 274 275 276 277
253 255 255 254 251 248 246 247 247 247 246 246 248 248 249 249 249 250 251 252 253 255 256 258 259 260 262 263 263 264 265 266 267 269 270 270 270 271 272 274 275 276 277 277
260 260 259 258 259 259 258 255 253 253 253 253 253 254 254 254 254 254 254 254 255 257 258 259 260 261 261 262 263 264 265 266 267 268 269 270 271 273 274 275 275 276 276 278
259 263 266 267 268 267 266 265 262 259 256 254 255 255 255 255 256 257 258 259 260 261 261 262 263 263 264 265 265 266 267 268 269 270 271 272 273 274 274 276 276 276 277 279
266 266 266 267 267 267 267 267 267 267 266 265 263 262 261 261 261 262 262 263 264 264 265 266 266 267 267 267 267 268 268 269 269 270 271 272 273 273 274 275 276 276 277 278
286 283 281 279 276 273 271 269 268 266 266 265 264 264 264 264 263 263 263 264 264 264 264 265 265 266 266 267 267 268 269 269 270 270 271 272 272 273 274 274 275 276 276 277
277 276 276 275 275 274 273 273 272 272 271 271 271 270 270 270 270 269 270 270 270 271 271 271 271 271 270 270 270 271 271 271 271 272 272 272 273 273 273 274 275 276 277 278
279 279 279 279 279 278 278 278 277 277 276 276 276 275 275 274 274 274 273 273 272 272 272 271 270 271 271 271 271 271 272 272 273 274 275 275 276 277 278 278 279 280 280 280
285 285 284 283 283 283 283 282 280 279 278 276 276 275 274 274 274 274 274 274 274 274 274 275 275 275 275 276 276 277 277 277 278 278 278 278 278 279 279 280 280 281 281 281
289 289 289 290 289 288 287 287 286 284 280 278 276 275 275 274 274 274 274 273 273 274 275 275 276 276 277 277 277 278 278 278 278 279 279 279 279 279 280 280 280 281 281 281
Height
10319 10327 10332 10339 10345 10351 10361 10367 10375 10377 10380 10387 10390 10396 10405 10411 10420 10429 10436 10444 10452 10461 10471 10477 10483 10490 10497 10505 10510 10514 10518 10520 10522 10525 10526 10528 10531 10534 10535 10537 10538 10541 10541 10542
10308 10316 10324 10331 10334 10345 10352 10357 10364 10369 10373 10380 10384 10391 10400 10406 10413 10423 10433 10440 10446 10454 10461 10468 10474 10481 10488 10493 10497 10502 10506 10508 10510 10513 10514 10518 10521 10523 10525 10526 10527 10528 10528 10529
10300 10308 10317 10322 10325 10336 10342 10346 10354 10359 10365 10373 10380 10387 10395 10403 10412 10419 10426 10432 10440 10446 10452 10458 10464 10469 10473 10478 10483 10488 10492 10495 10497 10500 10503 10505 10506 10508 10510 10511 10512 10515 10515 10516
10291 10297 10305 10306 10315 10323 10329 10335 10343 10349 10356 10365 10373 10382 10390 10397 10404 10409 10416 10422 10428 10435 10441 10447 10453 10458 10462 10466 10470 10474 10478 10482 10485 10488 10491 10492 10494 10495 10496 10496 10497 10498 10499 10501
10282 10286 10294 10294 10300 10307 10316 10324 10331 10338 10346 10356 10365 10374 10383 10387 10392 10395 10401 10409 10415 10422 10429 10435 10440 10445 10449 10455 10460 10464 10467 10470 10472 10474 10476 10478 10480 10482 10483 10483 10482 10483 10484 10484
10270 10275 10281 10281 10282 10291 10305 10313 10321 10329 10337 10346 10355 10363 10367 10375 10382 10386 10394 10397 10402 10409 10414 10420 10426 10431 10436 10442 10447 10450 10453 10456 10458 10460 10460 10462 10464 10465 10465 10465 10466 10466 10467 10468
10258 10265 10269 10266 10271 10284 10296 10301 10312 10318 10325 10336 10345 10349 10356 10362 10367 10371 10378 10382 10386 10393 10399 10405 10413 10416 10421 10426 10429 10433 10437 10440 10442 10443 10445 10446 10446 10446 10447 10448 10449 10449 10450 10450
10250 10255 10254 10254 10263 10271 10284 10289 10298 10303 10312 10321 10330 10339 10345 10351 10356 10360 10366 10371 10377 10383 10387 10392 10398 10402 10407 10410 10414 10418 10420 10422 10424 10426 10427 10429 10430 10430 10430 10430 10430 10430 10431 10431
10239 10242 10240 10247 10255 10262 10271 10277 10285 10292 10301 10309 10317 10325 10331 10335 10334 10343 10349 10355 10362 10369 10376 10380 10384 10388 10391 10392 10395 10397 10400 10402 10406 10409 10411 10412 10413 10413 10413 10412 10412 10411 10411 10410
10228 10230 10233 10241 10247 10254 10260 10265 10272 10279 10287 10293 10300 10307 10309 10312 10317 10323 10330 10338 10345 10352 10360 10365 10370 10372 10374 10378 10380 10383 10384 10385 10388 10391 10391 10392 10392 10393 10394 10394 10393 10392 10391 10390
10216 10222 10229 10234 10239 10245 10251 10256 10261 10266 10272 10279 10284 10290 10296 10297 10308 10315 10319 10324 10330 10338 10344 10348 10351 10356 10359 10361 10363 10366 10366 10368 10370 10370 10370 10371 10371 10372 10372 10372 10370 10369 10368 10367
10205 10211 10218 10223 10227 10232 10238 10244 10250 10256 10261 10267 10272 10277 10282 10286 10290 10294 10300 10304 10312 10320 10328 10330 10334 10337 10340 10342 10345 10347 10347 10349 10350 10350 10348 10348 10348 10349 10348 10348 10346 10344 10343 10340
10194 10201 10206 10212 10216 10220 10225 10232 10238 10243 10249 10252 10257 10263 10268 10271 10275 10280 10286 10291 10297 10302 10307 10310 10314 10316 10320 10322 10324 10325 10326 10326 10328 10328 10327 10326 10325 10323 10322 10321 10319 10319 10317 10314
10185 10190 10194 10200 10205 10208 10214 10218 10224 10230 10235 10238 10243 10247 10252 10257 10261 10263 10267 10272 10275 10280 10284 10287 10291 10294 10297 10298 10300 10300 10300 10301 10302 10303 10303 10302 10300 10299 10297 10295 10293 10291 10288 10284
10175 10180 10183 10186 10191 10195 10201 10205 10209 10215 10219 10224 10229 10234 10238 10241 10243 10245 10248 10252 10256 10258 10262 10266 10269 10272 10274 10275 10276 10277 10277 10277 10276 10275 10274 10274 10273 10271 10270 10267 10264 10260 10258 10253
10165 10167 10170 10173 10175 10179 10184 10189 10193 10199 10204 10209 10212 10216 10220 10222 10225 10227 10230 10233 10236 10239 10242 10245 10247 10249 10252 10252 10251 10252 10252 10251 10250 10249 10248 10247 10245 10242 10239 10237 10235 10230 10225 10221
10153 10155 10156 10159 10161 10164 10167 10171 10176 10179 10182 10187 10190 10195 10199 10201 10204 10208 10211 10214 10218 10220 10221 10222 10223 10224 10224 10225 10226 10226 10224 10223 10222 10221 10220 10219 10217 10213 10209 10205 10201 10196 10192 10187
10144 10146 10148 10150 10154 10156 10158 10160 10162 10165 10166 10168 10170 10173 10175 10179 10181 10184 10186 10188 10189 10191 10193 10195 10195 10195 10196 10196 10196 10196 10195 10195 10193 10191 10188 10185 10182 10179 10176 10171 10167 10163 10159 10155
10137 10138 10139 10141 10142 10143 10143 10144 10146 10147 10148 10150 10152 10154 10157 10159 10161 10163 10164 10165 10165 10166 10167 10167 10168 10168 10169 10168 10167 10166 10164 10162 10160 10158 10156 10153 10150 10147 10144 10141 10138 10133 10128 10124
10129 10130 10130 10130 10131 10131 10132 10133 10133 10133 10133 10134 10134 10135 10136 10137 10138 10138 10139 10139 10140 10140 10141 10141 10141 10141 10140 10138 10138 10136 10135 10132 10130 10128 10125 10122 10120 10118 10116 10112 10107 10103 10098 10095
10122 10121 10120 10118 10117 10116 10116 10116 10116 10116 10115 10115 10115 10115 10115 10115 10115 10115 10115 10115 10115 10115 10114 10114 10114 10114 10113 10112 10110 10109 10107 10105 10103 10100 10097 10095 10092 10090 10086 10082 10078 10074 10069 10066
10114 10113 10112 10110 10108 10106 10103 10101 10100 10098 10098 10098 10097 10097 10097 10096 10096 10095 10094 10094 10093 10091 10091 10090 10089 10088 10086 10085 10083 10081 10079 10077 10075 10072 10069 10067 10064 10060 10058 10054 10050 10046 10043 10039
10101 10099 10096 10094 10092 10089 10087 10084 10083 10081 10080 10079 10077 10075 10074 10072 10071 10070 10069 10068 10066 10065 10064 10062 10061 10060 10058 10056 10053 10052 10051 10049 10047 10044 10042 10039 10036 10033 10030 10027 10024 10021 10017 10014
10089 10086 10082 10079 10076 10073 10070 10067 10065 10063 10061 10059 10057 10056 10054 10052 10050 10048 10047 10045 10044 10043 10041 10040 10038 10036 10033 10031 10029 10027 10025 10023 10021 10019 10016 10014 10011 10008 10005 10002 9999 9996 9993 9990
10077 10073 10069 10065 10061 10057 10054 10051 10048 10046 10043 10041 10038 10036 10033 10031 10029 10027 10025 10023 10021 10020 10018 10016 10013 10011 10010 10008 10005 10004 10002 9999 9997 9995 9992 9989 9986 9982 9980 9977 9975 9972 9969 9966
10063 10058 10053 10048 10043 10039 10036 10032 10030 10027 10025 10022 10019 10016 10013 10010 10008 10006 10004 10001 9999 9997 9994 9992 9990 9988 9986 9984 9982 9979 9977 9975 9974 9972 9969 9966 9963 9959 9956 9953 9951 9948 9944 9941
10046 10041 10036 10031 10027 10023 10019 10015 10011 10009 10006 10003 10000 9997 9994 9991 9989 9987 9985 9982 9980 9977 9974 9972 9969 9966 9965 9962 9960 9957 9955 9953 9950 9948 9946 9944 9941 9938 9934 9931 9928 9926 9923 9920